Майск

Россия / Томская область     57°48′41″N   77°13′03″E
темп.,
°C
ветер,
м/с
пор.,
м/с
влажн.,
%
обл.,
%
осадки,
мм/ч
давл.,
гПа
погр.,
м
28 октября, чт
чт2801:00−3ююз269398 0.0 1022223
04:00−2ю2689100 0.0 1022355
07:00−2ю3890100 0.1 1021394
10:00−1ю41194100 0.5 1019561
13:00+1ю5116294 0.6 1017905
16:00+2ю51159100 0.0 1014875
19:00+1ююз61363100 0.0 1013815
22:000ююз51466100 0.0 1011759
29 октября, пт
пт2901:00+1ююз51467100 0.0 1009819
04:00+1ююз5137092 0.0 1008825
07:00+1юз5137686 0.0 1008852
10:00+1ююз51277100 0.0 1008852
13:00+2ююз51278100 0.0 1008769
16:00+2ююз51282100 0.0 1007916
19:00+1ююз61497100 0.3 1007991
22:00−2зсз61296100 1.4 1009706
30 октября, сб
сб3001:00−5з5118096 1.8 1012974
04:00−5з61176100 0.1 10141318
07:00−5з61174100 0.1 10161360
10:00−5з61172100 0.1 10181375
13:00−4з61065100 0.3 10191522
16:00−4зюз5106293 0.1 10201457
19:00−5зюз4106325 0.1 10201085
22:00−4юз4962100 0.0 1019941
31 октября, вс
вс3101:00−4ююз4992100 0.3 1017694
04:00−4ююз3994100 1.1 1014678
07:00−4юв2695100 2.3 1012426
10:00−4вюв2391100 0.9 1011302
13:00−2ссв4677100 1.0 1012943
16:00−3с5779100 0.1 1014909
19:00−7ссз410745 0.2 1019681
22:00−9сз498379 0.0 1022665
1 ноября, пн
пн101:00−9сз388790 0.0 1024555
04:00−10зсз25935 0.0 1025208
07:00−11юз249660 0.0 1025110
10:00−9ююз2783100 0.0 1024258
13:00−6ююз4764100 0.0 1023513
16:00−5ю4986100 0.1 1020571
19:00−5ююв4119293 0.4 1018526
22:00−4ю31195100 0.3 1016508